N0ERG Weather Reports


Display with metric or nautical units.
time (UTC)temp
F
wind
direction
speed
MPH
gust
MPH
rain 1hr
in
rain 24hr
in
rain mn
in
humidity
%
barometer
mb
20230130152005 -1 328 2.0 3.0 0.00 0.00 0.00 79 1029.9
20230130151005 -1 327 2.0 3.0 0.00 0.00 0.00 79 1029.8
20230130145005 -1 321 1.0 3.0 0.00 0.00 0.00 79 1029.5
20230130144005 -1 333 2.0 3.0 0.00 0.00 0.00 79 1029.3
20230130143005 -2 306 2.0 3.0 0.00 0.00 0.00 79 1029.3
20230130141006 -1 329 1.0 3.0 0.00 0.00 0.00 78 1029.2
20230130140005 -1 326 1.0 3.0 0.00 0.00 0.00 78 1029.1
20230130135006 -1 331 1.0 3.0 0.00 0.00 0.00 78 1029.3
20230130134006 -1 300 1.0 3.0 0.00 0.00 0.00 78 1029.2
20230130133005 -1 314 1.0 3.0 0.00 0.00 0.00 77 1029.3
20230130132007 -1 339 1.0 3.0 0.00 0.00 0.00 76 1029.2
20230130131006 -1 0 0.0 2.0 0.00 0.00 0.00 76 1029.1
20230130130005 -1 355 0.0 2.0 0.00 0.00 0.00 76 1029.1
20230130125005 -1 347 1.0 3.0 0.00 0.00 0.00 76 1029.2
20230130123005 -1 307 2.0 5.0 0.00 0.00 0.00 76 1029.1
20230130122005 -1 323 1.0 3.0 0.00 0.00 0.00 77 1029.1
20230130121005 -1 354 1.0 3.0 0.00 0.00 0.00 77 1029.2
20230130120005 -1 340 1.0 3.0 0.00 0.00 0.00 77 1029.3
20230130115005 -1 338 1.0 3.0 0.00 0.00 0.00 77 1029.3
20230130114005 -1 342 1.0 3.0 0.00 0.00 0.00 77 1029.3
20230130113005 -1 351 2.0 3.0 0.00 0.00 0.00 77 1029.3
20230130111006 -1 329 1.0 3.0 0.00 0.00 0.00 77 1029.3
20230130110004 -1 5 1.0 3.0 0.00 0.00 0.00 77 1029.2
20230130105005 -1 331 0.0 3.0 0.00 0.00 0.00 77 1029.2
20230130104005 -2 5 1.0 3.0 0.00 0.00 0.00 77 1029.3
20230130103005 -2 355 1.0 3.0 0.00 0.00 0.00 77 1029.4
20230130102005 -2 355 1.0 3.0 0.00 0.00 0.00 77 1029.4
20230130101005 -2 346 1.0 3.0 0.00 0.00 0.00 77 1029.4
20230130095005 -2 16 1.0 3.0 0.00 0.00 0.00 77 1029.3
20230130094005 -2 82 1.0 3.0 0.00 0.00 0.00 76 1029.4
20230130093004 -2 43 2.0 3.0 0.00 0.00 0.00 76 1029.5
20230130092006 -2 62 2.0 3.0 0.00 0.00 0.00 76 1029.5
20230130090004 -2 53 1.0 6.0 0.00 0.00 0.00 76 1029.5
20230130085005 -2 50 3.0 6.0 0.00 0.00 0.00 76 1029.4
20230130084005 -2 73 2.0 5.0 0.00 0.00 0.00 77 1029.5
20230130083004 -2 80 2.0 3.0 0.00 0.00 0.00 77 1029.5
20230130082004 -2 51 2.0 5.0 0.00 0.00 0.00 77 1029.5
20230130080005 -2 80 0.0 3.0 0.00 0.00 0.00 77 1029.4
20230130075005 -2 53 2.0 3.0 0.00 0.00 0.00 77 1029.4
20230130073004 -2 66 2.0 3.0 0.00 0.00 0.00 77 1029.6
20230130072004 -1 55 2.0 5.0 0.00 0.00 0.00 77 1029.7
20230130071005 -1 82 3.0 5.0 0.00 0.00 0.00 77 1029.7
20230130070005 -1 72 2.0 3.0 0.00 0.00 0.00 78 1029.8
20230130065004 -1 63 1.0 3.0 0.00 0.00 0.00 78 1029.9
20230130064005 -1 84 2.0 3.0 0.00 0.00 0.00 77 1030.0
20230130063004 -1 49 2.0 3.0 0.00 0.00 0.00 77 1030.1
20230130062004 0 56 2.0 3.0 0.00 0.00 0.00 77 1030.3
20230130060005 0 50 1.0 3.0 0.00 0.00 0.00 77 1030.3
20230130054004 0 82 2.0 5.0 0.00 0.00 0.00 77 1030.6
20230130053005 0 59 1.0 3.0 0.00 0.00 0.00 78 1030.5
20230130052005 0 1 1.0 3.0 0.00 0.00 0.00 78 1030.4
20230130050004 0 77 2.0 5.0 0.00 0.00 0.00 78 1030.2
20230130045006 0 25 1.0 3.0 0.00 0.00 0.00 77 1030.2
20230130044005 0 42 2.0 3.0 0.00 0.00 0.00 78 1030.2
20230130043004 0 63 2.0 5.0 0.00 0.00 0.00 78 1030.2
20230130042004 1 55 1.0 6.0 0.00 0.00 0.00 79 1030.1
20230130041005 1 58 2.0 3.0 0.00 0.00 0.00 79 1030.1
20230130040005 1 52 2.0 5.0 0.00 0.00 0.00 79 1029.9
20230130035004 1 25 1.0 3.0 0.00 0.00 0.00 79 1029.9
20230130034005 1 56 3.0 5.0 0.00 0.00 0.00 79 1029.8
20230130033005 1 38 1.0 3.0 0.00 0.00 0.00 80 1029.7
20230130031006 1 67 2.0 5.0 0.00 0.00 0.00 80 1029.5
20230130025004 1 48 3.0 7.0 0.00 0.00 0.00 81 1029.2
20230130023005 1 50 2.0 6.0 0.00 0.00 0.00 80 1028.9
20230130022004 1 63 2.0 7.0 0.00 0.00 0.00 81 1028.9
20230130020005 1 56 2.0 5.0 0.00 0.00 0.00 81 1028.6
20230130014005 1 54 2.0 5.0 0.00 0.00 0.00 82 1028.1
20230130013005 1 60 2.0 6.0 0.00 0.00 0.00 81 1028.1
20230130012004 1 59 2.0 6.0 0.00 0.00 0.00 81 1027.9
20230130011005 1 63 3.0 7.0 0.00 0.00 0.00 81 1027.7
20230130010005 1 43 2.0 5.0 0.00 0.00 0.00 81 1027.4
20230130005005 2 41 4.0 6.0 0.00 0.00 0.00 81 1027.3
20230130003005 2 50 1.0 6.0 0.00 0.00 0.00 80 1026.9
20230130002004 2 46 3.0 6.0 0.00 0.00 0.00 80 1026.6
20230130001005 2 48 2.0 6.0 0.00 0.00 0.00 80 1026.3
20230129234004 2 19 2.0 5.0 0.00 0.00 0.00 79 1025.6
20230129233005 3 46 2.0 5.0 0.00 0.00 0.00 79 1025.4
20230129232004 3 28 2.0 8.0 0.00 0.00 0.00 78 1025.3
20230129231005 3 64 2.0 8.0 0.00 0.00 0.00 78 1025.2
20230129230004 3 64 2.0 6.0 0.00 0.00 0.00 77 1024.9
20230129225005 3 30 2.0 6.0 0.00 0.00 0.00 78 1024.6
20230129223004 4 49 2.0 8.0 0.00 0.00 0.00 77 1024.2
20230129222004 4 348 2.0 5.0 0.00 0.00 0.00 77 1024.0
20230129221005 4 357 2.0 9.0 0.00 0.00 0.00 77 1023.8
20230129220004 4 329 2.0 8.0 0.00 0.00 0.00 76 1023.6
20230129215004 4 345 2.0 6.0 0.00 0.00 0.00 77 1023.4
20230129214005 4 351 2.0 7.0 0.00 0.00 0.00 78 1023.1
20230129212004 5 45 3.0 7.0 0.00 0.00 0.00 77 1022.7
20230129211004 5 13 2.0 9.0 0.00 0.00 0.00 78 1022.5
20230129210004 5 345 3.0 6.0 0.00 0.00 0.00 78 1022.2
20230129205004 5 16 2.0 6.0 0.00 0.00 0.00 78 1022.1
20230129204004 6 335 2.0 6.0 0.00 0.00 0.00 78 1022.0
20230129203004 6 4 3.0 9.0 0.00 0.00 0.00 79 1021.9
20230129202005 6 57 2.0 8.0 0.00 0.00 0.00 79 1022.0
20230129201004 6 348 2.0 8.0 0.00 0.00 0.00 79 1022.0
20230129200004 6 46 3.0 7.0 0.00 0.00 0.00 79 1021.8
20230129194004 6 7 3.0 6.0 0.00 0.00 0.00 79 1021.7
20230129193004 6 329 3.0 6.0 0.00 0.00 0.00 79 1021.7
20230129192004 6 26 2.0 9.0 0.00 0.00 0.00 79 1021.6
20230129191004 6 356 3.0 7.0 0.00 0.00 0.00 79 1021.7
20230129190005 6 51 3.0 8.0 0.00 0.00 0.00 79 1021.6
20230129185004 6 358 2.0 8.0 0.00 0.00 0.00 79 1021.6
20230129184004 7 332 3.0 8.0 0.00 0.00 0.00 79 1021.7
20230129183004 7 330 1.0 6.0 0.00 0.00 0.00 80 1021.7
20230129182004 6 326 3.0 9.0 0.00 0.00 0.00 79 1021.8
20230129181004 7 353 3.0 9.0 0.00 0.00 0.00 80 1021.6
20230129180004 7 18 2.0 8.0 0.00 0.00 0.00 80 1021.7
20230129174004 7 328 3.0 7.0 0.00 0.00 0.00 81 1021.6
20230129173004 7 7 3.0 9.0 0.00 0.00 0.00 82 1021.6
20230129172004 7 334 2.0 8.0 0.00 0.00 0.00 82 1021.5
20230129171004 7 342 2.0 5.0 0.00 0.00 0.00 83 1021.3
20230129170004 7 313 3.0 8.0 0.00 0.00 0.00 82 1021.1
20230129165004 7 321 2.0 6.0 0.00 0.00 0.00 83 1021.1
20230129164004 7 340 3.0 7.0 0.00 0.00 0.00 83 1021.0
20230129163004 6 323 2.0 3.0 0.00 0.00 0.00 83 1020.8
20230129162005 6 15 2.0 5.0 0.00 0.00 0.00 83 1020.7
20230129161005 6 328 2.0 5.0 0.00 0.00 0.00 83 1020.6
20230129160006 6 321 2.0 5.0 0.00 0.00 0.00 84 1020.6
20230129155005 6 332 1.0 5.0 0.00 0.00 0.00 83 1020.5
20230129154005 6 321 3.0 7.0 0.00 0.00 0.00 83 1020.4